Weather History for Jackson, MN

Change the Weather History Date:

Sunday, May 27, 2012

  Actual Average Record
Temperature  
Mean Temperature 74 °F -  
Max Temperature 87 °F 68 °F 89 °F (2006)
Min Temperature 60 °F 48 °F 41 °F (2007)
Cooling Degree Days 8    
Growing Degree Days 24 (Base 50)    
Moisture  
Dew Point 66 °F    
Average Humidity 74    
Maximum Humidity 100    
Minimum Humidity 46    
Precipitation  
Precipitation 0.97 in - - ()
Sea Level Pressure  
Sea Level Pressure 29.70 in    
Wind  
Wind Speed 14 mph (SSW)    
Max Wind Speed 33 mph    
Max Gust Speed 38 mph    
Visibility 9 miles    
Events Rain , Thunderstorm    
Averages and records for this station are not official NWS values.
T = Trace of Precipitation, MM = Missing Value Source: NWS Daily Summary

Daily Weather History Graph

Daily Weather History Graph

Search for Another Location

Airport:

Trip Planner

Search our weather history database for the weather conditions in past years. The results will help you decide how hot, cold, wet, or windy it might be!

Date:

Astronomy

May. 27, 2012 Rise Set
Actual Time 5:43 AM CDT 8:50 PM CDT
Civil Twilight 5:09 AM CDT 9:25 PM CDT
Nautical Twilight 4:25 AM CDT 10:10 PM CDT
Astronomical Twilight 3:31 AM CDT 11:03 PM CDT
Moon 11:57 AM CDT (5/27) 12:52 AM CDT (5/27)
Length of Visible Light 16h 16m
Length of Day
15h 06m
Waxing Crescent, 38% of the Moon is Illuminated
May 27
Waxing Crescent
May 28
First Quarter
Jun 4
Full
Jun 11
Last Quarter
Jun 19
New

Hourly Weather History & Observations

Time (CDT) Temp. Heat Index Dew Point Humidity Pressure Visibility Wind Dir Wind Speed Gust Speed Precip Events Conditions
12:14 AM 69.8 °F - 69.8 °F 100% 29.77 in 5.0 mi SE 8.1 mph - N/A   Clear
12:34 AM 73.4 °F - 69.8 °F 88% 29.76 in 7.0 mi SSE 12.7 mph - N/A   Clear
12:54 AM 73.4 °F - 69.8 °F 88% 29.75 in 7.0 mi SSE 13.8 mph - N/A   Clear
1:14 AM 73.4 °F - 69.8 °F 88% 29.74 in 7.0 mi SSE 13.8 mph - N/A   Clear
1:34 AM 73.4 °F - 69.8 °F 88% 29.73 in 7.0 mi SSE 13.8 mph 19.6 mph N/A   Clear
1:53 AM 73.4 °F - 69.8 °F 88% 29.73 in 7.0 mi South 16.1 mph 20.7 mph N/A   Clear
2:14 AM 73.4 °F - 69.8 °F 88% 29.73 in 7.0 mi South 15.0 mph 21.9 mph N/A   Clear
2:34 AM 71.6 °F - 69.8 °F 94% 29.73 in 7.0 mi South 15.0 mph - N/A   Clear
3:14 AM 71.6 °F - 68.0 °F 88% 29.73 in 7.0 mi South 11.5 mph 18.4 mph N/A   Clear
3:34 AM 71.6 °F - 68.0 °F 88% 29.73 in 7.0 mi South 13.8 mph 18.4 mph N/A   Clear
3:53 AM 71.6 °F - 68.0 °F 88% 29.73 in 7.0 mi South 11.5 mph - N/A   Clear
4:14 AM 71.6 °F - 68.0 °F 88% 29.73 in 10.0 mi South 11.5 mph - N/A   Clear
4:34 AM 71.6 °F - 66.2 °F 83% 29.75 in 10.0 mi South 10.4 mph - N/A   Clear
4:53 AM 69.8 °F - 64.4 °F 83% 29.74 in 10.0 mi South 9.2 mph - N/A   Clear
5:14 AM 69.8 °F - 64.4 °F 83% 29.74 in 10.0 mi South 10.4 mph - N/A   Clear
5:33 AM 69.8 °F - 64.4 °F 83% 29.74 in 10.0 mi South 11.5 mph - N/A   Clear
5:54 AM 69.8 °F - 64.4 °F 83% 29.73 in 10.0 mi South 11.5 mph - N/A   Clear
6:14 AM 69.8 °F - 64.4 °F 83% 29.73 in 10.0 mi South 11.5 mph - N/A   Clear
6:33 AM 69.8 °F - 64.4 °F 83% 29.72 in 10.0 mi SSE 10.4 mph - N/A   Clear
6:54 AM 69.8 °F - 64.4 °F 83% 29.71 in 10.0 mi SSE 9.2 mph - N/A   Clear
7:34 AM 69.8 °F - 64.4 °F 83% 29.71 in 10.0 mi South 13.8 mph 18.4 mph N/A   Clear
7:53 AM 71.6 °F - 64.4 °F 78% 29.71 in 10.0 mi South 16.1 mph 20.7 mph N/A   Clear
8:14 AM 71.6 °F - 66.2 °F 83% 29.73 in 10.0 mi South 17.3 mph 21.9 mph N/A   Clear
8:34 AM 71.6 °F - 64.4 °F 78% 29.72 in 10.0 mi South 18.4 mph 23.0 mph N/A   Clear
8:53 AM 73.4 °F - 66.2 °F 78% 29.72 in 10.0 mi South 17.3 mph 25.3 mph N/A   Clear
9:13 AM 75.2 °F - 66.2 °F 73% 29.72 in 10.0 mi South 20.7 mph 28.8 mph N/A   Clear
9:34 AM 75.2 °F - 66.2 °F 73% 29.71 in 10.0 mi SSW 23.0 mph 26.5 mph N/A   Clear
9:54 AM 73.4 °F - 66.2 °F 78% 29.71 in 10.0 mi SSW 15.0 mph 24.2 mph N/A   Clear
10:13 AM 77.0 °F - 68.0 °F 74% 29.72 in 10.0 mi SSW 15.0 mph 24.2 mph N/A   Clear
10:34 AM 78.8 °F - 68.0 °F 69% 29.72 in 10.0 mi SW 19.6 mph 26.5 mph N/A   Clear
10:54 AM 78.8 °F - 68.0 °F 69% 29.71 in 10.0 mi SSW 24.2 mph 29.9 mph N/A   Clear
11:13 AM 78.8 °F - 68.0 °F 69% 29.71 in 10.0 mi SW 21.9 mph - N/A   Clear
11:34 AM 80.6 °F 83.2 °F 68.0 °F 65% 29.71 in 10.0 mi SSW 23.0 mph 27.6 mph N/A   Clear
11:54 AM 80.6 °F 82.7 °F 66.2 °F 61% 29.71 in 10.0 mi SW 23.0 mph 31.1 mph N/A   Clear
12:14 PM 80.6 °F 83.2 °F 68.0 °F 65% 29.71 in 10.0 mi SW 18.4 mph 27.6 mph N/A   Scattered Clouds
12:34 PM 80.6 °F 83.2 °F 68.0 °F 65% 29.71 in 10.0 mi SSW 23.0 mph 29.9 mph N/A   Scattered Clouds
12:54 PM 82.4 °F 85.4 °F 68.0 °F 62% 29.71 in 10.0 mi South 19.6 mph 25.3 mph N/A   Scattered Clouds
1:13 PM 82.4 °F 85.4 °F 68.0 °F 62% 29.71 in 10.0 mi South 21.9 mph 31.1 mph N/A   Scattered Clouds
1:34 PM 82.4 °F 85.4 °F 68.0 °F 62% 29.70 in 10.0 mi SSW 21.9 mph 27.6 mph N/A   Clear
1:53 PM 82.4 °F 85.4 °F 68.0 °F 62% 29.70 in 10.0 mi SSW 19.6 mph 29.9 mph N/A   Scattered Clouds
2:14 PM 82.4 °F 84.6 °F 66.2 °F 58% 29.70 in 10.0 mi SSW 18.4 mph 28.8 mph N/A   Scattered Clouds
2:33 PM 84.2 °F 86.6 °F 66.2 °F 55% 29.69 in 10.0 mi South 18.4 mph 25.3 mph N/A   Scattered Clouds
2:54 PM 84.2 °F 85.6 °F 64.4 °F 51% 29.69 in 10.0 mi South 17.3 mph - N/A   Clear
3:14 PM 86.0 °F 87.3 °F 64.4 °F 48% 29.69 in 10.0 mi SSW 19.6 mph 27.6 mph N/A   Clear
3:34 PM 86.0 °F 87.3 °F 64.4 °F 48% 29.69 in 10.0 mi SSW 20.7 mph 27.6 mph N/A   Scattered Clouds
3:54 PM 86.0 °F 88.2 °F 66.2 °F 51% 29.68 in 10.0 mi SSW 19.6 mph 24.2 mph N/A   Scattered Clouds
4:13 PM 86.0 °F 88.2 °F 66.2 °F 51% 29.67 in 10.0 mi SSW 15.0 mph 25.3 mph N/A   Clear
4:34 PM 87.8 °F 90.4 °F 66.2 °F 49% 29.66 in 10.0 mi SSW 17.3 mph - N/A   Clear
4:54 PM 87.8 °F 90.4 °F 66.2 °F 49% 29.66 in 10.0 mi SSW 13.8 mph 18.4 mph N/A   Clear
5:13 PM 87.8 °F 89.4 °F 64.4 °F 46% 29.65 in 10.0 mi SSW 13.8 mph 18.4 mph N/A   Clear
5:34 PM 87.8 °F 89.4 °F 64.4 °F 46% 29.65 in 10.0 mi SSW 15.0 mph 20.7 mph N/A   Clear
5:54 PM 86.0 °F 87.3 °F 64.4 °F 48% 29.63 in 10.0 mi SSW 12.7 mph - N/A   Clear
6:13 PM 82.4 °F 83.9 °F 64.4 °F 54% 29.62 in 10.0 mi SSW 8.1 mph - N/A   Clear
6:34 PM 84.2 °F 85.6 °F 64.4 °F 51% 29.61 in 10.0 mi South 8.1 mph - N/A   Scattered Clouds
6:54 PM 82.4 °F 83.9 °F 64.4 °F 54% 29.61 in 10.0 mi South 8.1 mph - N/A Thunderstorm Scattered Clouds
7:13 PM 82.4 °F 83.9 °F 64.4 °F 54% 29.61 in 10.0 mi SSW 6.9 mph - N/A Thunderstorm Scattered Clouds
7:34 PM 77.0 °F - 66.2 °F 69% 29.59 in 1.8 mi WNW 12.7 mph 25.3 mph 0.13 in Rain , Thunderstorm Heavy Thunderstorms and Rain
7:54 PM 73.4 °F - 66.2 °F 78% 29.59 in 7.0 mi NW 5.8 mph - 0.13 in Rain , Thunderstorm Light Thunderstorms and Rain
8:13 PM 71.6 °F - 64.4 °F 78% 29.60 in 10.0 mi WNW 9.2 mph 20.7 mph N/A Thunderstorm Overcast
8:34 PM 69.8 °F - 64.4 °F 83% 29.62 in 10.0 mi WNW 8.1 mph 18.4 mph N/A Thunderstorm Overcast
8:54 PM 69.8 °F - 62.6 °F 78% 29.61 in 10.0 mi WNW 8.1 mph - N/A   Overcast
9:13 PM 68.0 °F - 60.8 °F 78% 29.70 in 10.0 mi West 33.4 mph 38.0 mph N/A Rain , Thunderstorm Rain
9:34 PM 60.8 °F - 59.0 °F 94% 29.73 in 1.8 mi West 11.5 mph 23.0 mph 0.32 in Rain , Thunderstorm Heavy Thunderstorms and Rain
9:54 PM 60.8 °F - 60.8 °F 100% 29.71 in 5.0 mi NW 5.8 mph - 0.46 in Rain , Thunderstorm Heavy Thunderstorms and Rain
10:13 PM 60.8 °F - 60.8 °F 100% 29.74 in 10.0 mi SW 6.9 mph - 0.02 in Rain , Thunderstorm Heavy Thunderstorms and Rain
10:34 PM 62.6 °F - 60.8 °F 94% 29.73 in 3.0 mi SSW 4.6 mph - 0.23 in Rain , Thunderstorm Heavy Thunderstorms and Rain
10:54 PM 62.6 °F - 60.8 °F 94% 29.71 in 10.0 mi South 3.5 mph - 0.30 in Rain , Thunderstorm Light Thunderstorms and Rain
11:14 PM 62.6 °F - 60.8 °F 94% 29.69 in 10.0 mi South 4.6 mph - N/A   Overcast
11:34 PM 62.6 °F - 60.8 °F 94% 29.71 in 10.0 mi WSW 3.5 mph - N/A   Overcast
11:54 PM 62.6 °F - 60.8 °F 94% 29.75 in 4.0 mi South 4.6 mph - 0.08 in Rain , Thunderstorm Heavy Thunderstorms and Rain